Location: Cerro Alto Campground
(35.4250°N, 120.7383°W)
Time: 23:18:54
(UTC-07:00)

Daily predictions for brighter satellites

Satellite Brightness Start Highest point End
(mag) Time Altitude Azimuth Time Altitude Azimuth Time Altitude Azimuth
Cosmos 332 Rocket 4.1 20:43:29 10° N 20:48:13 53° ENE 20:52:57 10° SSE
USA 229 DEB 4.1 20:41:48 10° S 20:48:14 43° ESE 20:54:44 10° NE
USA 229 4.1 20:41:55 10° S 20:48:20 43° ESE 20:54:50 10° NE
YAOGAN 11 4.3 20:44:44 10° SSE 20:48:54 52° ENE 20:53:08 10° N
DELTA 2 R/B(2) 2.9 20:50:17 10° SW 20:51:53 47° SSE 20:53:35 10° ENE
Meteor 2-1 Rocket 4.3 20:47:32 10° N 20:53:12 89° ENE 20:58:45 10° S
GPS 2-04 Rocket1 3.0 20:49:32 10° W 20:53:54 69° SSW 20:58:12 10° ESE
CZ-2D R/B 3.9 20:52:12 10° S 20:56:02 60° W 20:59:52 10° NNW
H-2A R/B 2.9 20:52:22 10° S 20:56:14 77° W 21:00:04 10° NNW
Cosmos 968 Rocket 3.5 20:52:13 10° S 20:57:17 62° ESE 21:02:25 10° NNE
Cosmos 1076 Rocket 3.9 20:53:35 10° SSW 20:57:49 67° W 21:02:06 10° N
deb Kosmos-1763 4.2 20:54:19 10° SSW 20:58:11 86° ESE 21:02:06 10° NNE
Cosmos 2026 Rocket 4.2 20:59:24 10° S 21:05:28 79° W 21:11:39 10° N
CZ-4 DEB 3.1 21:03:59 10° S 21:07:09 65° W 21:10:21 10° NNW
Cosmos 1378 3.9 21:03:42 10° SSW 21:07:22 57° W 21:11:04 10° N
Meteor 1-21 Rocket 4.3 21:03:32 10° S 21:08:55 54° E 21:14:17 10° NNE
Cosmos 2360 4.4 21:04:57 10° NNW 21:10:39 75° WSW 21:16:22 10° SSE
H-2A R/B 2.5 21:08:25 10° SSE 21:12:48 52° ENE 21:17:13 10° N
Envisat 3.5 21:10:50 10° SE 21:15:35 45° ENE 21:20:24 10° N
DELTA 2 R/B (1) 4.2 21:14:38 10° WNW 21:20:06 56° N 21:25:34 10° E
Cosmos 1328 Rocket 3.6 21:15:48 10° N 21:20:14 66° E 21:24:36 10° SSE
YAOGAN 6 4.4 21:20:33 13° ESE 21:22:18 18° ENE 21:24:48 10° NNE
Cosmos 371 Rocket 3.2 21:19:56 10° NNW 21:24:45 83° ENE 21:29:06 13° SSE
ERS-1 Rocket 3.0 21:19:53 10° SSE 21:24:54 83° WSW 21:29:58 10° NNW
Cosmos 2228 Rocket 3.2 21:21:18 10° N 21:25:48 81° W 21:30:17 10° S
Cosmos 1437 4.2 21:25:22 18° ESE 21:26:23 21° E 21:28:55 10° NE
USA 186 4.0 21:24:56 10° SW 21:26:24 15° W 21:27:54 10° WNW
Cosmos 405 4.2 21:25:08 10° NNE 21:28:16 27° ENE 21:29:54 19° ESE
SPOT 5 3.2 21:25:09 16° SE 21:28:29 43° ENE 21:32:56 10° N
ALOS 4.0 21:24:52 10° SSW 21:28:58 31° W 21:33:07 10° NW
S3M 3.9 21:24:05 10° N 21:30:13 88° E 21:36:22 10° S
Cosmos 1743 Rocket 4.0 21:25:55 10° SSW 21:30:22 66° W 21:34:49 10° N
Cosmos 1777 Rocket 3.9 21:26:12 10° S 21:31:27 78° ESE 21:36:44 10° NNE
CZ-2C R/B 1.0 21:33:05 22° SSW 21:33:51 37° W 21:35:32 10° NNW
Cosmos 1500 Rocket 3.6 21:32:44 10° S 21:37:05 83° W 21:41:29 10° N
MetOp-A 4.5 21:36:13 18° SE 21:39:58 49° ENE 21:45:07 10° N
ARGOS 4.3 21:37:20 17° ESE 21:40:22 29° ENE 21:44:55 10° N
deb Chang Zheng 4 4.3 21:38:04 10° N 21:42:18 54° WNW 21:46:31 10° SSW
H-2A R/B 4.0 21:41:19 12° E 21:43:45 15° ENE 21:46:47 10° NNE
PSLV R/B 3.4 21:42:35 30° SE 21:43:50 53° ENE 21:46:51 10° N
Cosmos 1441 Rocket 3.8 21:40:28 10° SSW 21:44:11 55° W 21:47:54 10° N
Cosmos 2219 3.6 21:43:34 11° S 21:48:39 43° ESE 21:54:03 10° NE
ATLAS CENTAUR R/B 2.7 21:46:28 10° NW 21:50:28 34° WSW 21:53:26 14° S
UNK 4.5 21:44:20 10° NNE 21:50:31 71° ESE 21:56:47 10° S
Delta 2 Rocket 2.7 21:50:13 10° WSW 21:53:42 65° SSE 21:55:06 31° E
SPOT 1/Viking Rocket 4.0 21:52:44 25° SE 21:55:24 46° ENE 22:00:18 10° N
NOSS 3-1 (C) 3.7 21:50:58 10° S 21:56:18 41° ESE 22:02:04 10° NE
Cosmos 1726 4.0 21:54:33 10° NE 21:57:00 16° ENE 21:57:09 16° ENE
AVUM R/B 3.7 21:55:42 13° SW 21:57:27 40° WNW 21:59:44 10° N
Cosmos 2322 4.0 21:54:22 10° NNW 21:59:59 53° ENE 22:02:51 27° SE
FALCON 9 R/B 4.5 21:22:09 10° WSW 22:00:32 80° S 22:08:51 10° E
Cosmos 1680 Rocket 3.8 21:57:46 10° N 22:02:53 51° ENE 22:05:13 30° SE
Cosmos 1939 Rocket 4.1 22:00:20 13° SSW 22:03:33 37° W 22:07:13 10° NNW
USA 245 3.2 22:03:51 37° ENE 22:03:51 37° ENE 22:06:02 10° N
Cosmos 883 Rocket 4.4 21:58:09 10° N 22:04:22 81° E 22:08:28 22° S
Cosmos 2322 Rocket 3.1 22:00:28 10° NW 22:05:45 44° WSW 22:10:01 15° S
Cosmos 1908 3.4 22:02:12 10° NNW 22:06:05 71° W 22:08:02 28° S
Cosmos 923 Rocket 3.9 22:01:01 10° NNW 22:06:14 75° ENE 22:08:44 31° SSE
CZ-3A R/B 4.0 21:35:01 10° WSW 22:06:31 43° SSW 22:09:39 27° SE
Cosmos 304 Rocket 3.9 22:04:51 10° N 22:09:38 61° ENE 22:11:25 36° SE
Cosmos 1898 Rocket 4.0 22:13:30 34° ESE 22:14:24 36° E 22:19:07 10° NE
SL-16 R/B 3.3 22:09:53 10° NW 22:15:07 39° WSW 22:19:09 16° SSW
CZ-4B R/B 3.5 22:10:03 10° NNE 22:15:20 87° WNW 22:19:28 16° SSW
NOAA 11 4.3 22:13:06 32° SE 22:15:25 57° ENE 22:20:46 10° N
Cosmos 2360 Rocket 2.1 22:11:05 10° NNW 22:16:45 76° ENE 22:19:14 35° SSE
Meteor 1-11 4.3 22:15:56 30° SSE 22:18:45 60° E 22:24:24 10° NNE
Cosmos 1633 Rocket 3.5 22:19:19 39° ESE 22:19:42 40° E 22:23:48 10° NNE
Sich 1 3.4 22:19:29 41° ESE 22:20:01 43° E 22:24:13 10° NNE
Cosmos 1674 4.3 22:19:44 10° SW 22:23:10 32° W 22:26:39 10° NNW
Cosmos 2315 Rocket 3.9 22:17:49 10° N 22:24:03 82° E 22:27:09 32° S
Cosmos 2151 3.7 22:23:19 18° SSW 22:26:12 49° W 22:30:18 10° N
Terra 2.7 22:30:16 32° E 22:31:00 34° ENE 22:35:16 10° N
Cosmos 1805 Rocket 3.6 22:31:18 38° SSW 22:32:59 78° W 22:37:27 10° N
Meteor 1-4 Rocket 4.0 22:30:10 10° NNE 22:32:55 27° ENE 22:32:55 27° ENE
GPS 2-04 Rocket1 4.3 22:30:02 10° W 22:33:09 24° SW 22:33:09 24° SW
Cosmos 1300 2.6 22:31:21 10° N 22:35:12 71° E 22:35:14 71° E
Cosmos 1151 Rocket 4.4 22:33:16 10° NNW 22:37:11 34° W 22:39:17 22° SW
Cosmos 2227 Rocket 3.3 22:39:32 26° E 22:39:32 26° E 22:43:24 10° NE
CZ-4C R/B 3.3 22:43:31 61° NNE 22:43:31 61° NNE 22:46:33 10° N
CZ-4 R/B 4.3 22:39:28 10° N 22:44:21 62° WNW 22:46:58 26° SW
OAO 2 Rocket 4.2 22:40:09 10° SW 22:43:37 35° SSW 22:43:37 35° SSW
USA 32 4.1 22:41:02 10° N 22:46:14 60° E 22:47:01 53° ESE
Cosmos 2333 Rocket 3.6 22:43:02 10° N 22:47:41 25° ENE 22:49:11 22° E
SWAS 4.3 22:43:42 10° NNW 22:48:02 86° WSW 22:48:17 79° S
Cosmos 1707 Rocket 3.7 22:50:10 10° NNW 22:54:29 65° W 22:54:58 60° SW
Cosmos 1666 Rocket 3.9 22:54:06 47° SW 22:55:03 59° W 22:59:25 10° N
YAOGAN 6 4.5 22:55:02 21° WSW 22:55:43 23° W 22:58:39 10° NW
Nadezhda 1 Rocket 4.3 22:50:13 10° N 22:56:05 48° E 22:57:05 44° ESE
Cosmos 2058 4.3 22:55:21 26° WSW 22:56:52 34° W 23:00:39 10° NNW
Cosmos 1455 4.0 22:54:55 10° NNE 22:56:59 22° NE 22:56:59 22° NE
NOSS 3-1 (A) 3.3 22:54:38 23° SSW 22:58:28 86° WNW 23:04:52 10° NNE
COSMOS 2428 2.6 22:53:51 10° NNW 22:59:33 83° ENE 23:00:36 61° SE
Cosmos 1745 Rocket 3.9 23:01:50 52° S 23:03:29 80° E 23:09:42 10° N
Cosmos 2298 Rocket 4.5 23:02:45 30° SW 23:05:16 59° WNW 23:10:32 10° N
Cosmos 2297 Rocket 3.3 23:07:31 29° ENE 23:07:31 29° ENE 23:11:15 10° NE
SL-08 R/B 4.4 23:04:17 45° SSW 23:06:21 83° W 23:12:38 10° N
DELTA 2 R/B (1) 3.4 23:01:14 10° WNW 23:06:48 85° SSW 23:07:27 70° SE
Cosmos 1470 Rocket 3.8 23:09:03 58° NE 23:09:03 58° NE 23:12:39 10° NNE
Cosmos 1933 Rocket 3.8 23:10:28 61° NE 23:10:28 61° NE 23:14:18 10° NNE
Cosmos 220 Rocket 4.2 23:15:38 68° N 23:15:38 68° N 23:19:32 10° NNE
Cosmos 1703 4.1 23:18:15 49° NW 23:18:15 49° NW 23:21:31 10° N
Cosmos 1937 Rocket 3.5 23:16:58 63° SW 23:17:45 76° WNW 23:22:59 10° NNE
Cosmos 2219 Rocket 2.3 23:14:12 10° NNW 23:19:44 59° ENE 23:20:07 57° E
IGS 5A 3.9 23:20:24 61° NW 23:20:24 61° NW 23:23:58 10° NNW
ARGOS 4.4 23:18:51 27° SW 23:20:27 32° W 23:25:15 10° NW
ATLAS 2AS CENTAUR R/B 2.9 23:19:59 53° SE 23:20:51 55° ESE 23:28:32 10° NE
Cosmos 2237 4.4 23:15:33 10° NNW 23:21:11 60° WSW 23:21:52 56° SW
H-2A R/B 2.3 23:21:57 58° SW 23:22:32 62° W 23:27:54 10° NNW
Cosmos 1271 Rocket 3.9 23:22:30 10° NNW 23:25:17 41° NW 23:25:17 41° NW
Cosmos 2242 Rocket 4.5 23:27:30 10° NNW 23:31:33 42° W 23:31:33 42° W
Cosmos 1726 4.1 23:29:14 10° NW 23:31:50 23° WNW 23:31:50 23° WNW
Cosmos 990 Rocket 3.9 23:33:28 77° WNW 23:33:28 77° WNW 23:38:35 10° NNE
Cosmos 1980 3.9 23:27:58 10° NNW 23:33:31 55° ENE 23:33:40 54° ENE
Cosmos 1386 Rocket 4.3 23:33:46 66° SSW 23:34:36 79° W 23:40:38 10° N
NOSS 0 Rocket 3.7 23:38:54 10° NNW 23:45:06 85° ENE 23:45:22 81° ESE
Cosmos 2082 3.7 23:45:28 75° WSW 23:45:46 78° WNW 23:51:31 10° NNE
Cosmos 2237 Rocket 2.3 23:41:17 10° NNW 23:46:53 66° ENE 23:46:53 66° ENE
ATLAS 3B R/B 3.9 23:40:59 10° NNW 23:47:08 32° NE 23:49:26 26° E
CZ-4B R/B 4.5 23:51:29 11° NE 23:51:29 11° NE 23:51:46 10° NE
